Home   Weather   Victoria   Past weeks

Flag for Seychelles Past Weather in Victoria, Seychelles — Yesterday and Last 2 Weeks

Now
81 °F

Passing clouds.


Feels Like: 86 °F
Forecast: 75 / 82 °F
Wind: 10 mph from Southeast

Location: National Airport

Current Time: Sep 26, 2016 at 9:31:58 PM

Latest Report: Sep 26, 2016 at 9:00 PM


Visibility: N/A

Pressure: 29.92 "Hg

Humidity: 84%

Dew Point: 75 °F

Location of VictoriaLocation

Past Weather in Victoria — Graph

°F

Victoria Temperature Yesterday

Maximum temperature yesterday: 86 °F (at 1:00 PM)
Minimum temperature yesterday: 79 °F (at 2:00 AM)
Average temperature yesterday: 81 °F

High & Low Weather Summary for the Past Weeks

 TemperatureHumidityPressure
High88 °F (Sep 26, 1:00 PM)94% (Sep 20, 6:00 AM)29.98 "Hg (Sep 20, 6:00 AM)
Low77 °F (Sep 12, 2:00 AM)62% (Sep 12, 1:00 PM)29.80 "Hg (Sep 25, 4:00 PM)
Average81 °F75%29.90 "Hg
* Reported Sep 11 8:00 PM — Sep 26 8:00 PM, Victoria, Weather by CustomWeather, © 2016

Note: Actual official high and low records may vary slightly from our data, if they occured in-between our weather recording intervals... More about our weather records

Advertising

Victoria Weather History for the Previous 24 Hours

Scroll right to see more
 ConditionsComfort  
Time TempWeatherWind HumidityBarometerVisibility
8:00 PM
Mon, Sep 26
81 °FPassing clouds.9 mph84%29.89 "HgN/A
7:00 PM82 °FPassing clouds.9 mph74%29.89 "HgN/A
6:00 PM82 °FPassing clouds.9 mph74%29.86 "HgN/A
5:00 PM84 °FPassing clouds.9 mph70%29.86 "HgN/A
4:00 PM86 °FScattered clouds.8 mph66%29.83 "HgN/A
3:00 PM86 °FScattered clouds.9 mph66%29.83 "HgN/A
2:00 PM86 °FPassing clouds.9 mph66%29.83 "HgN/A
1:00 PM88 °FPassing clouds.10 mph62%29.86 "HgN/A
12:00 PM86 °FPassing clouds.9 mph66%29.89 "HgN/A
11:00 AM86 °FPassing clouds.10 mph66%29.92 "HgN/A
10:00 AM86 °FPassing clouds.12 mph66%29.92 "HgN/A
9:00 AM84 °FPassing clouds.10 mph70%29.92 "HgN/A
8:00 AM82 °FPassing clouds.9 mph70%29.92 "HgN/A
7:00 AM81 °FScattered clouds.10 mph79%29.89 "HgN/A
6:00 AM79 °FPassing clouds.9 mph84%29.86 "HgN/A
5:00 AM79 °FPassing clouds.13 mph84%29.83 "HgN/A
4:00 AM79 °FPassing clouds.No wind84%29.83 "HgN/A
3:00 AM79 °FPassing clouds.8 mph84%29.83 "HgN/A
2:00 AM79 °FPassing clouds.13 mph84%29.83 "HgN/A
1:00 AM79 °FPassing clouds.10 mph84%29.86 "HgN/A
12:00 AM79 °FPassing clouds.10 mph84%29.86 "HgN/A
11:00 PM
Sun, Sep 25
79 °FPassing clouds.10 mph84%29.86 "HgN/A
10:00 PM79 °FPassing clouds.7 mph84%29.86 "HgN/A
9:00 PM79 °FPassing clouds.8 mph79%29.86 "HgN/A
Weather by CustomWeather, © 2016

See weather overviewHow to use our weather pages